Location: Sontra
(51.0000°N, 10.0000°E)
Time: 08:45:11
(UTC+00:00)

ISS - Visible Passes

Search period start: 19 September 2021 00:00
Search period end: 29 September 2021 00:00
Orbit: 419 x 423 km, 51.6° (Epoch: 19 September)

Date Brightness Start Highest point End Pass type
(mag) Time Alt. Az. Time Alt. Az. Time Alt. Az.
19 Sep -2.4 18:06:22 10° SSW 18:09:08 24° SE 18:11:44 11° E visible
19 Sep -2.9 19:42:17 10° WSW 19:44:45 45° WSW 19:44:45 45° WSW visible
20 Sep -3.7 18:55:27 10° WSW 18:58:47 61° SSE 18:59:51 38° E visible
20 Sep -0.8 20:32:15 10° W 20:32:51 14° W 20:32:51 14° W visible
21 Sep -3.3 18:08:42 10° SW 18:11:57 46° SSE 18:14:52 12° E visible
21 Sep -2.8 19:45:20 10° W 19:47:52 47° W 19:47:52 47° W visible
22 Sep -3.8 18:58:25 10° W 19:01:48 88° NNW 19:02:48 43° ENE visible
22 Sep -0.6 20:35:21 10° W 20:35:48 13° W 20:35:48 13° W visible
23 Sep -3.8 18:11:32 10° WSW 18:14:54 79° SSE 18:17:42 14° E visible
23 Sep -2.4 19:48:25 10° W 19:50:41 39° WNW 19:50:41 39° WNW visible
24 Sep -3.8 19:01:30 10° W 19:04:53 77° N 19:05:32 54° ENE visible
24 Sep -0.4 20:38:23 10° WNW 20:38:31 11° W 20:38:31 11° W visible
25 Sep -3.7 18:14:34 10° W 18:17:57 80° N 18:20:22 18° E visible
25 Sep -1.9 19:51:28 10° WNW 19:53:21 31° W 19:53:21 31° W visible
26 Sep -3.9 19:04:33 10° W 19:07:57 88° NNE 19:08:10 76° E visible
27 Sep -3.8 18:17:37 10° W 18:21:00 80° N 18:23:00 23° E visible
27 Sep -1.4 19:54:31 10° W 19:55:59 23° W 19:55:59 23° W visible
28 Sep -3.6 19:07:34 10° W 19:10:49 62° SSW 19:10:49 62° SSW visible
